Regional Weather Roundup
Issued by NWS

Home | Current Version | Previous Version | Text Only | Print | Product List | Glossary On
Versions: 1 2 3 4 5 6 7 8 9 10 11 12 13 14 15 16 17 18 19 20 21 22 23 24 25 26 27 28 29 30 31 32 33 34 35 36 37 38 39 40 41 42 43 44 45 46 47 48 49 50
000
ASUS43 KBIS 052201
RWRND

NORTH DAKOTA REGIONAL WEATHER ROUNDUP
NATIONAL WEATHER SERVICE BISMARCK ND
500 PM CDT TUE MAY 05 2015

NOTE: "FAIR" INDICATES FEW OR NO CLOUDS BELOW 12,000 FEET WITH NO
SIGNIFICANT WEATHER AND/OR OBSTRUCTIONS TO VISIBILITY.


NDZ001>003-009>011-017-052300-
NORTHWEST NORTH DAKOTA

CITY           SKY/WX    TMP DP  RH WIND       PRES   REMARKS
WILLISTON      MOSUNNY   81  43  26 S15       29.76F
MINOT          SUNNY     78  29  16 SE21G29   29.86F
$$

NDZ018>021-031>035-040>046-052300-
SOUTHWEST NORTH DAKOTA

CITY           SKY/WX    TMP DP  RH WIND       PRES   REMARKS
BISMARCK       SUNNY     78  34  20 S23G31    29.89F
DICKINSON      MOSUNNY   71  49  45 S30G36    29.83F
GARRISON         N/A     75  33  21 S17       29.87F
HETTINGER ARPT PTSUNNY   69  50  50 SE21G31   29.87F
$$

NDZ004>008-012>016-024-026-027-054-052300-
NORTHEAST NORTH DAKOTA

CITY           SKY/WX    TMP DP  RH WIND       PRES   REMARKS
GRAND FORKS    MOSUNNY   79  22  12 S22G29    29.98F
DEVILS LAKE    SUNNY     73  28  19 SE18      29.95F
$$

NDZ022-023-025-028>030-036>039-047>053-052300-
SOUTHEAST NORTH DAKOTA

CITY           SKY/WX    TMP DP  RH WIND       PRES   REMARKS
FARGO          SUNNY     79  33  19 S17G29    29.98F
JAMESTOWN      SUNNY     78  29  16 S21G31    29.94F
$$




USA.gov is the U.S. government's official web portal to all federal, state and local government web resources and services.